This is the latest recevied weather packets stored in our database for station/object K1BES. If no packets are shown the sender has not sent any weather packets the latest 10 day(s).
| Time | Temp. | Humidity | Pressure | Rain* | Wind** | Luminosity | Snow |
|---|---|---|---|---|---|---|---|
| 1778081650 | 30° C | 69% | 1019.2 hPa | 0 mm | - | 784 W/m² | - |
| 1778081347 | 30° C | 69% | 1019.1 hPa | 0 mm | - | 903 W/m² | - |
| 1778081044 | 30° C | 69% | 1019.2 hPa | 0 mm | - | 870 W/m² | - |
| 1778080743 | 30° C | 69% | 1019.1 hPa | 0 mm | - | 326 W/m² | - |
| 1778080439 | 30° C | 69% | 1019.2 hPa | 0 mm | - | 881 W/m² | - |
| 1778080137 | 30° C | 70% | 1019 hPa | 0 mm | - | 822 W/m² | - |
| 1778079833 | 30° C | 69% | 1019.1 hPa | 0 mm | - | 784 W/m² | - |
| 1778079530 | 30° C | 69% | 1019 hPa | 0 mm | - | 715 W/m² | - |
| 1778079226 | 30° C | 69% | 1019.1 hPa | 0 mm | - | 715 W/m² | - |
| 1778078924 | 29.44° C | 70% | 1018.8 hPa | 0 mm | - | 708 W/m² | - |
| 1778078620 | 28.89° C | 71% | 1019.2 hPa | 0 mm | - | 736 W/m² | - |
| 1778078319 | 28.89° C | 71% | 1019 hPa | 0 mm | - | 733 W/m² | - |
| 1778078015 | 28.89° C | 71% | 1018.6 hPa | 0 mm | - | 688 W/m² | - |
| 1778077714 | 28.89° C | 71% | 1018.7 hPa | 0 mm | - | 204 W/m² | - |
| 1778077411 | 29.44° C | 69% | 1018.7 hPa | 0 mm | - | 666 W/m² | - |
| 1778077109 | 28.89° C | 71% | 1018.9 hPa | 0 mm | - | 658 W/m² | - |
| 1778076807 | 29.44° C | 69% | 1019 hPa | 0 mm | - | 614 W/m² | - |
| 1778076505 | 29.44° C | 68% | 1018.8 hPa | 0 mm | - | 619 W/m² | - |
| 1778076201 | 28.89° C | 70% | 1018.9 hPa | 0 mm | - | 605 W/m² | - |
| 1778075898 | 28.89° C | 69% | 1018.8 hPa | 0 mm | - | 204 W/m² | - |
| 1778075595 | 28.89° C | 69% | 1018.8 hPa | 0 mm | - | 532 W/m² | - |
| 1778075291 | 28.89° C | 70% | 1018.8 hPa | 0 mm | - | 409 W/m² | - |
| 1778074988 | 28.89° C | 70% | 1018.6 hPa | 0 mm | - | 445 W/m² | - |
| 1778074685 | 28.89° C | 70% | 1018.6 hPa | 0 mm | - | 435 W/m² | - |
| 1778074382 | 28.33° C | 72% | 1018.7 hPa | 0 mm | - | 365 W/m² | - |
* Rain latest hour (hover to see other rain measurements)
** Current wind speed in m/s (hover to see current wind gust speed)